TimeCEST,TemperatureF,Dew PointF,Humidity,Sea Level PressureIn,VisibilityMPH,Wind Direction,Wind SpeedMPH,Gust SpeedMPH,PrecipitationIn,Events,Conditions,WindDirDegrees,DateUTC
12:00 AM,59.0,50.0,72,29.98,-9999.0,SW,8.1,-,N/A,,Clear,230,2012-10-05 22:00:00
1:00 AM,59.0,50.0,72,29.98,6.2,WSW,9.2,-,N/A,,Partly Cloudy,240,2012-10-05 23:00:00
2:00 AM,59.0,50.0,72,29.98,6.2,WSW,8.1,19.6,N/A,,Mostly Cloudy,240,2012-10-06 00:00:00
3:00 AM,57.2,50.0,77,29.98,-9999.0,SW,6.9,-,N/A,,Clear,230,2012-10-06 01:00:00
4:00 AM,55.4,50.0,82,29.98,-9999.0,SW,6.9,-,N/A,,Clear,220,2012-10-06 02:00:00
5:00 AM,55.4,50.0,82,29.95,-9999.0,SW,8.1,-,N/A,,Clear,230,2012-10-06 03:00:00
6:00 AM,55.4,50.0,82,29.95,6.2,SW,8.1,-,N/A,,Partly Cloudy,230,2012-10-06 04:00:00
7:00 AM,55.4,50.0,82,29.95,6.2,SW,3.5,-,N/A,,Mostly Cloudy,220,2012-10-06 05:00:00
8:00 AM,57.2,50.0,77,29.95,6.2,SSW,4.6,-,N/A,,Mostly Cloudy,210,2012-10-06 06:00:00
8:30 AM,57.2,50.0,77,29.95,6.2,South,3.5,-,N/A,,Partly Cloudy,190,2012-10-06 06:30:00
9:00 AM,59.0,50.0,72,29.95,6.2,SSW,4.6,-,N/A,,Partly Cloudy,200,2012-10-06 07:00:00
9:30 AM,60.8,50.0,68,29.92,6.2,SW,8.1,-,N/A,,Scattered Clouds,230,2012-10-06 07:30:00
10:00 AM,62.6,50.0,63,29.95,6.2,WSW,9.2,-,N/A,,Partly Cloudy,240,2012-10-06 08:00:00
10:30 AM,62.6,50.0,63,29.92,6.2,WSW,12.7,-,N/A,,Partly Cloudy,250,2012-10-06 08:30:00
11:00 AM,64.4,51.8,64,29.92,6.2,SW,10.4,-,N/A,,Partly Cloudy,230,2012-10-06 09:00:00
11:30 AM,64.4,50.0,59,29.92,6.2,SW,10.4,-,N/A,,Partly Cloudy,220,2012-10-06 09:30:00
12:00 PM,64.4,50.0,59,29.92,6.2,SW,10.4,-,N/A,,Partly Cloudy,230,2012-10-06 10:00:00
12:30 PM,66.2,50.0,56,29.92,6.2,SSW,12.7,-,N/A,,Partly Cloudy,210,2012-10-06 10:30:00
1:00 PM,66.2,50.0,56,29.89,6.2,SSW,11.5,-,N/A,,Partly Cloudy,210,2012-10-06 11:00:00
1:30 PM,66.2,48.2,52,29.89,6.2,SW,11.5,-,N/A,,Partly Cloudy,220,2012-10-06 11:30:00
2:00 PM,68.0,50.0,52,29.86,6.2,SW,15.0,29.9,N/A,,Partly Cloudy,220,2012-10-06 12:00:00
2:30 PM,68.0,50.0,52,29.86,6.2,SW,15.0,27.6,N/A,,Partly Cloudy,220,2012-10-06 12:30:00
3:00 PM,66.2,50.0,56,29.86,6.2,SW,13.8,25.3,N/A,,Partly Cloudy,220,2012-10-06 13:00:00
3:30 PM,68.0,50.0,52,29.86,6.2,SW,15.0,33.4,N/A,,Partly Cloudy,220,2012-10-06 13:30:00
4:00 PM,68.0,46.4,46,29.86,6.2,SW,13.8,-,N/A,,Partly Cloudy,230,2012-10-06 14:00:00
4:30 PM,66.2,48.2,52,29.86,6.2,WSW,16.1,31.1,N/A,,Partly Cloudy,240,2012-10-06 14:30:00
5:00 PM,66.2,41.0,40,29.89,6.2,WSW,18.4,34.5,N/A,,Partly Cloudy,240,2012-10-06 15:00:00
5:30 PM,62.6,42.8,48,29.89,6.2,WSW,15.0,28.8,N/A,,Partly Cloudy,240,2012-10-06 15:30:00
6:00 PM,62.6,44.6,52,29.89,6.2,WSW,12.7,-,N/A,,Scattered Clouds,240,2012-10-06 16:00:00
6:30 PM,60.8,46.4,59,29.89,6.2,WSW,13.8,27.6,N/A,,Mostly Cloudy,240,2012-10-06 16:30:00
7:00 PM,60.8,46.4,59,29.89,6.2,WSW,16.1,-,N/A,Rain,Light Rain,240,2012-10-06 17:00:00
7:30 PM,59.0,48.2,67,29.92,6.2,WSW,10.4,-,N/A,Rain,Light Rain,240,2012-10-06 17:30:00
8:00 PM,59.0,48.2,67,29.92,6.2,WSW,12.7,-,N/A,,Mostly Cloudy,240,2012-10-06 18:00:00
8:30 PM,59.0,50.0,72,29.92,6.2,WSW,15.0,28.8,N/A,,Mostly Cloudy,250,2012-10-06 18:30:00
9:00 PM,57.2,50.0,77,29.92,6.2,West,11.5,-,N/A,Rain,Light Rain,260,2012-10-06 19:00:00
10:00 PM,51.8,50.0,94,29.95,6.2,West,6.9,-,N/A,Rain,Light Rain,260,2012-10-06 20:00:00
11:00 PM,50.0,48.2,94,29.95,6.2,NW,5.8,-,N/A,Rain,Light Rain,310,2012-10-06 21:00:00